Crookston, MN

8:56 PM CDT on March 28, 2017 (GMT -0500)
Crookston Municipal-Kirkwood

Weather History for KCKN - January, 2013

Change the Weather History Date:

Thursday, January 31, 2013

  Actual Average Record
Temperature  
Mean Temperature -10 °F -  
Max Temperature -4 °F 17 °F 42 °F (2009)
Min Temperature -16 °F 1 °F -25 °F (2004)
Degree Days  
Heating Degree Days 75    
Moisture  
Dew Point -15 °F    
Average Humidity 77    
Maximum Humidity 85    
Minimum Humidity 70    
Precipitation  
Precipitation 0.00 in - - ()
Sea Level Pressure  
Sea Level Pressure 30.16 in    
Wind  
Wind Speed 23 mph (NNW)    
Max Wind Speed 30 mph    
Max Gust Speed 36 mph    
Visibility 3 miles    
Events Snow    
Averages and records for this station are not official NWS values.
T = Trace of Precipitation, MM = Missing Value Source: NWS Daily Summary

Daily Weather History Graph

Daily Weather History Graph

Search for Another Location

Airport or City:

Trip Planner

Search our weather history database for the weather conditions in past years. The results will help you decide how hot, cold, wet, or windy it might be!

Date:

Astronomy

Jan. 31, 2013 Rise Set
Actual Time 7:54 AM CST 5:25 PM CST
Civil Twilight 7:21 AM CST 5:59 PM CST
Nautical Twilight 6:44 AM CST 6:36 PM CST
Astronomical Twilight 6:07 AM CST 7:12 PM CST
Moon 10:57 PM CST (1/31) 9:29 AM CST (1/31)
Length of Visible Light 10h 37m
Length of Day
9h 31m
Waning Gibbous, 79% of the Moon is Illuminated
Jan 31
Waning Gibbous
Feb 3
Last Quarter
Feb 10
New
Feb 17
First Quarter
Feb 25
Full

Hourly Weather History & Observations

Time (CST) Temp. Windchill Dew Point Humidity Pressure Visibility Wind Dir Wind Speed Gust Speed Precip Events Conditions
12:15 AM -4.0 °F -30.0 °F -7.6 °F 85% 29.92 in 0.8 mi NNW 26.5 mph 29.9 mph N/A Snow Light Snow
12:35 AM -4.0 °F -30.0 °F -7.6 °F 85% 29.93 in 0.8 mi North 26.5 mph - N/A Snow Light Snow
12:54 AM -4.0 °F -28.1 °F -7.6 °F 85% 29.94 in 0.5 mi NNW 21.9 mph - N/A Snow Light Snow
1:15 AM -4.0 °F -29.6 °F -7.6 °F 85% 29.94 in 0.2 mi North 25.3 mph - N/A Snow Heavy Snow
1:35 AM -5.8 °F -32.9 °F -9.4 °F 84% 29.95 in 0.5 mi NNW 27.6 mph 32.2 mph N/A Snow Snow
1:54 AM -5.8 °F -32.9 °F -9.4 °F 84% 29.95 in 0.5 mi NNW 27.6 mph - N/A Snow Snow
2:15 AM -5.8 °F -32.4 °F -9.4 °F 84% 29.95 in 0.8 mi North 26.5 mph - N/A Snow Light Snow
2:34 AM -5.8 °F -32.0 °F -9.4 °F 84% 29.96 in 0.8 mi North 25.3 mph - N/A Snow Light Snow
2:54 AM -5.8 °F -32.9 °F -9.4 °F 84% 29.97 in 0.5 mi North 27.6 mph 32.2 mph N/A Snow Snow
3:15 AM -5.8 °F -33.7 °F -9.4 °F 84% 29.97 in 0.5 mi North 29.9 mph - N/A Snow Snow
3:34 AM -5.8 °F -33.7 °F -11.2 °F 77% 29.97 in 0.8 mi NNW 29.9 mph 35.7 mph N/A Snow Light Snow
3:54 AM -7.6 °F -36.1 °F -11.2 °F 84% 29.98 in 0.8 mi North 29.9 mph - N/A Snow Snow
4:15 AM -5.8 °F -32.9 °F -9.4 °F 84% 30.00 in 0.5 mi North 27.6 mph 31.1 mph N/A Snow Snow
4:34 AM -7.6 °F -35.3 °F -11.2 °F 84% 30.01 in 0.2 mi North 27.6 mph 33.4 mph N/A Snow Heavy Snow
4:55 AM -7.6 °F -34.8 °F -11.2 °F 84% 30.02 in 0.5 mi NNW 26.5 mph - N/A Snow Snow
5:15 AM -7.6 °F -34.8 °F -11.2 °F 84% 30.03 in 0.5 mi NNW 26.5 mph - N/A Snow Snow
5:34 AM -7.6 °F -35.7 °F -11.2 °F 84% 30.03 in 0.5 mi North 28.8 mph 34.5 mph N/A Snow Heavy Snow
5:55 AM -7.6 °F -35.3 °F -11.2 °F 84% 30.04 in 0.2 mi North 27.6 mph 34.5 mph N/A Snow Heavy Snow
6:15 AM -7.6 °F -34.4 °F -11.2 °F 84% 30.05 in 0.5 mi North 25.3 mph - N/A Snow Snow
6:34 AM -7.6 °F -35.7 °F -11.2 °F 84% 30.06 in 0.5 mi NNW 28.8 mph - N/A Snow Snow
6:55 AM -7.6 °F -35.7 °F -13.0 °F 77% 30.08 in 0.5 mi NNW 28.8 mph - N/A Snow Snow
7:14 AM -7.6 °F -35.7 °F -13.0 °F 77% 30.09 in 0.5 mi NNW 28.8 mph - N/A Snow Snow
7:35 AM -7.6 °F -34.8 °F -13.0 °F 77% 30.10 in 0.8 mi North 26.5 mph 33.4 mph N/A Snow Light Snow
7:55 AM -9.4 °F -38.2 °F -14.8 °F 77% 30.12 in 0.8 mi North 28.8 mph - N/A Snow Light Snow
8:14 AM -9.4 °F -37.3 °F -14.8 °F 77% 30.13 in 0.5 mi NNW 26.5 mph 32.2 mph N/A Snow Light Snow
8:34 AM -9.4 °F -37.7 °F -14.8 °F 77% 30.14 in 0.5 mi North 27.6 mph 33.4 mph N/A Snow Light Snow
8:55 AM -9.4 °F -35.8 °F -14.8 °F 77% 30.15 in 0.5 mi NNW 23.0 mph 31.1 mph N/A Snow Light Snow
9:35 AM -9.4 °F -35.8 °F -14.8 °F 77% 30.17 in 0.2 mi NNW 23.0 mph 28.8 mph N/A Snow Light Snow
9:55 AM -9.4 °F -37.3 °F -14.8 °F 77% 30.18 in 0.2 mi NNW 26.5 mph 29.9 mph N/A Snow Light Snow
10:14 AM -9.4 °F -38.2 °F -14.8 °F 77% 30.19 in 0.5 mi NNW 28.8 mph - N/A   Haze
10:35 AM -9.4 °F -36.8 °F -14.8 °F 77% 30.20 in 0.2 mi NNW 25.3 mph 31.1 mph N/A   Haze
11:00 AM -9.4 °F -34.7 °F -14.8 °F 77% 30.22 in 0.5 mi NNW 20.7 mph 25.3 mph N/A   Haze
11:14 AM -9.4 °F -36.8 °F -14.8 °F 77% 30.22 in 0.8 mi NNW 25.3 mph 28.8 mph N/A   Haze
11:35 AM -9.4 °F -35.8 °F -14.8 °F 77% 30.23 in 1.0 mi North 23.0 mph - N/A   Haze
12:14 PM -9.4 °F -36.3 °F -14.8 °F 77% 30.23 in 0.8 mi NNW 24.2 mph - N/A   Haze
12:35 PM -9.4 °F -34.7 °F -14.8 °F 77% 30.23 in 1.0 mi NNW 20.7 mph - N/A   Haze
12:54 PM -9.4 °F -33.5 °F -16.6 °F 71% 30.23 in 3.0 mi NNW 18.4 mph 27.6 mph N/A   Haze
1:14 PM -9.4 °F -34.7 °F -14.8 °F 77% 30.23 in 5.0 mi NNW 20.7 mph - N/A   Haze
1:35 PM -9.4 °F -33.5 °F -14.8 °F 77% 30.24 in 2.0 mi NNW 18.4 mph - N/A   Haze
1:54 PM -9.4 °F -33.5 °F -14.8 °F 77% 30.24 in 1.5 mi NNW 18.4 mph - N/A   Haze
2:15 PM -9.4 °F -32.1 °F -14.8 °F 77% 30.24 in 2.0 mi NNW 16.1 mph - N/A   Haze
2:35 PM -7.6 °F -31.7 °F -14.8 °F 71% 30.24 in 2.0 mi NNW 19.6 mph 29.9 mph N/A   Haze
2:54 PM -7.6 °F -31.7 °F -14.8 °F 71% 30.25 in 0.8 mi North 19.6 mph 26.5 mph N/A   Haze
3:15 PM -7.6 °F -30.5 °F -13.0 °F 77% 30.26 in 0.8 mi NNW 17.3 mph - N/A   Haze
3:35 PM -9.4 °F -31.4 °F -14.8 °F 77% 30.27 in 3.0 mi NNW 15.0 mph - N/A   Haze
3:54 PM -7.6 °F -29.1 °F -14.8 °F 71% 30.27 in 1.0 mi NNW 15.0 mph - N/A   Haze
4:15 PM -9.4 °F -30.6 °F -14.8 °F 77% 30.27 in 0.8 mi North 13.8 mph - N/A   Haze
4:35 PM -9.4 °F -30.6 °F -14.8 °F 77% 30.27 in 1.0 mi North 13.8 mph - N/A   Haze
4:54 PM -9.4 °F -29.8 °F -14.8 °F 77% 30.27 in 0.8 mi NNW 12.7 mph - N/A   Haze
5:14 PM -9.4 °F -32.1 °F -16.6 °F 71% 30.28 in 5.0 mi NW 16.1 mph - N/A   Haze
5:35 PM -11.2 °F -34.4 °F -18.4 °F 70% 30.28 in 10.0 mi NW 16.1 mph - N/A   Clear
5:54 PM -11.2 °F -32.1 °F -18.4 °F 70% 30.28 in 10.0 mi NW 12.7 mph - N/A   Clear
6:15 PM -11.2 °F -32.9 °F -18.4 °F 70% 30.29 in 10.0 mi NW 13.8 mph - N/A   Clear
6:34 PM -11.2 °F -31.1 °F -18.4 °F 70% 30.28 in 10.0 mi NW 11.5 mph - N/A   Clear
6:54 PM -11.2 °F -32.9 °F -18.4 °F 70% 30.28 in 10.0 mi NW 13.8 mph - N/A   Clear
7:15 PM -13.0 °F -35.2 °F -20.2 °F 70% 30.29 in 10.0 mi WNW 13.8 mph - N/A   Clear
7:34 PM -13.0 °F -36.0 °F -20.2 °F 70% 30.29 in 10.0 mi WNW 15.0 mph - N/A   Clear
7:54 PM -14.8 °F -37.5 °F -20.2 °F 77% 30.29 in 10.0 mi NW 13.8 mph - N/A   Clear
8:15 PM -14.8 °F -36.6 °F -20.2 °F 77% 30.29 in 10.0 mi NW 12.7 mph - N/A   Clear
8:34 PM -14.8 °F -34.6 °F -20.2 °F 77% 30.29 in 10.0 mi NW 10.4 mph - N/A   Clear
9:15 PM -14.8 °F -34.6 °F -20.2 °F 77% 30.28 in 10.0 mi NW 10.4 mph - N/A   Clear
9:34 PM -14.8 °F -33.5 °F -20.2 °F 77% 30.29 in 10.0 mi NW 9.2 mph - N/A   Clear
10:15 PM -14.8 °F -33.5 °F -22.0 °F 70% 30.28 in 10.0 mi WNW 9.2 mph - N/A   Clear
10:34 PM -14.8 °F -32.2 °F -22.0 °F 70% 30.28 in 10.0 mi WNW 8.1 mph - N/A   Clear
10:55 PM -16.6 °F -34.4 °F -22.0 °F 76% 30.28 in 10.0 mi WNW 8.1 mph - N/A   Clear
11:14 PM -16.6 °F -35.7 °F -22.0 °F 76% 30.27 in 10.0 mi WNW 9.2 mph - N/A   Clear
11:34 PM -16.6 °F -34.4 °F -23.8 °F 70% 30.27 in 10.0 mi WNW 8.1 mph - N/A   Clear
11:55 PM -16.6 °F -31.3 °F -23.8 °F 70% 30.27 in 10.0 mi West 5.8 mph - N/A   Clear